Location: City of Moscow
(46.7306°N, 116.9989°W)
Time: 04:32:14
(UTC+00:00)

KKS-1 - Visible Passes

Search period start: 21 April 2026 00:00
Search period end: 01 May 2026 00:00
Orbit: 614 x 626 km, 98.1° (Epoch: 20 April)

Date Brightness Start Highest point End Pass type
(mag) Time Alt. Az. Time Alt. Az. Time Alt. Az.
21 Apr ? 08:01:27 10° NNE 08:03:35 26° NE 08:03:35 26° NE visible
21 Apr ? 09:38:09 10° NNW 09:40:45 21° NW 09:40:45 21° NW visible
22 Apr ? 08:18:33 10° NNE 08:21:05 34° NNE 08:21:05 34° NNE visible
22 Apr ? 09:55:56 10° NNW 09:58:15 15° WNW 09:58:15 15° WNW visible
23 Apr ? 08:35:46 10° NNE 08:38:36 41° N 08:38:36 41° N visible
23 Apr ? 10:14:24 10° NW 10:15:27 11° WNW 10:15:46 11° WNW visible
24 Apr ? 07:18:12 10° NE 07:18:56 12° ENE 07:18:56 12° ENE visible
24 Apr ? 08:53:03 10° N 08:56:06 41° NNW 08:56:06 41° NNW visible
25 Apr ? 07:34:46 10° NE 07:36:26 18° ENE 07:36:26 18° ENE visible
25 Apr ? 09:10:26 10° N 09:13:36 34° NW 09:13:36 34° NW visible
26 Apr ? 07:51:37 10° NNE 07:53:56 25° NE 07:53:56 25° NE visible
26 Apr ? 09:27:55 10° N 09:31:06 26° NW 09:31:06 26° NW visible
27 Apr ? 08:08:38 10° NNE 08:11:26 35° NE 08:11:26 35° NE visible
27 Apr ? 09:45:34 10° NNW 09:48:35 19° WNW 09:48:36 19° WNW visible
28 Apr ? 08:25:46 10° NNE 08:28:56 48° NNE 08:28:56 48° NNE visible
28 Apr ? 10:03:30 10° NNW 10:05:35 13° WNW 10:06:06 13° WNW visible
29 Apr ? 07:08:56 10° ENE 07:09:15 11° ENE 07:09:15 11° ENE visible
29 Apr ? 08:42:59 10° N 08:46:25 54° N 08:46:25 54° N visible
30 Apr ? 07:25:06 10° NE 07:26:45 16° ENE 07:26:45 16° ENE visible
30 Apr ? 09:00:18 10° N 09:03:55 45° NW 09:03:55 45° NW visible
